User: anonymous   Login
Location: Unspecified
(0.0000°N, 0.0000°E)
Time: 16:41:07
(UTC+00:00)
Language:

USA 37 - Orbit

View from above orbital plane
View from above orbital plane
View from above satellite
View from above satellite

Ground track
Ground track

The orbit data is extracted from the following two-line orbital elements,

1 19976U 89035A   16160.03176236 0.00000000  00000-0  00000-0 0    02
2 19976   7.9502   9.5429 0985144 269.4402  79.2874  1.00270000    01
Epoch (UTC): 08 June 2016 00:45:44
Eccentricity: 0.0985144
inclination: 7.9502°
perigee height: 31633 km
apogee height: 39940 km
right ascension of ascending node: 9.5429°
argument of perigee: 269.4402°
revolutions per day: 1.00270000
mean anomaly at epoch: 79.2874°
orbit number at epoch: 0

The dashed part of the orbit path shows where the satellite is in the earth's shadow,  

DLR